TIME,DELAY(SENSOR),PRES,T(CTD),SAL,OXYGEN,RAWTEMP,T(OPTODE),TCPHASE,FLUOR,BETA(BETA700),BETA(BETA412),BETA(BETA440),CDOM,C(CSC),ED(ED411.90),ED(ED443.80),ED(ED489.40),ED(ED554.70),LU(LU412.20),LU(LU443.80),LU(LU489.40),LU(LU555.00),COMP,TILTX,TILTX(TILTY),CHECK
1355587255,5804,496.5599975585937500,17.2640991210937500,36.4160995483398440,226.0332946777343800,179.7303009033203000,17.2594699859619140,31.5089492797851560,50,97,52,56,55,12782,2146955666,2147516534,2147267675,2147463497,2147087277,2146952420,2147661778,2147125522,2014,-2,8,46118
1355587365,5805,485.6799926757812500,17.3279991149902340,36.4283981323242200,226.0569000244140600,177.7079925537109400,17.3204708099365230,31.4797592163085940,51,98,52,55,54,12778,2146953389,2147517696,2147270016,2147461476,2147087771,2146949741,2147659867,2147126226,930,-1,8,61699
1355587478,5804,474.3900146484375000,17.3950004577636720,36.4390983581543000,225.9963073730468800,175.3565979003906200,17.3913993835449220,31.4510898590087900,51,98,51,56,53,12781,2146957101,2147516461,2147268315,2147463780,2147086473,2146954870,2147656905,2147127734,3273,-1,8,27968
1355587599,5804,462.4899902343750000,17.4556999206542970,36.4504013061523440,225.5868072509765600,173.1398925781250000,17.4582691192626950,31.4413700103759770,50,98,53,55,54,12782,2146958290,2147517248,2147269174,2147461558,2147084461,2146949568,2147658221,2147130816,2323,-1,8,17300
1355587720,5753,451.0799865722656000,17.5608997344970700,36.4691009521484400,226.9382934570312500,169.9873962402343800,17.5533905029296880,31.3299407958984380,50,99,53,54,55,12781,2146957321,2147518345,2147268242,2147460516,2147082925,2146959625,2147654610,2147126006,1200,-1,8,49312
1355587843,5805,439.9500122070312500,17.6252994537353500,36.4816017150878900,228.4606018066406200,167.4380950927734400,17.6303195953369140,31.2189693450927730,50,100,51,57,53,12782,2146956598,2147517531,2147263917,2147461750,2147083730,2146958774,2147656246,2147126070,567,-1,8,29985
1355587964,5804,429.5700073242187500,17.7483005523681640,36.5059013366699200,230.4456024169922000,163.3441925048828000,17.7538795471191400,31.0649204254150400,50,99,52,56,55,12781,2146958619,2147513014,2147266697,2147458944,2147082642,2146956022,2147657435,2147124141,2893,-1,8,19991
1355588099,5803,418.2999877929687500,17.8150997161865230,36.5191001892089840,232.1920013427734400,161.2743988037109400,17.8163604736328120,30.9510707855224600,51,99,52,56,54,12780,2146956498,2147515456,2147268525,2147459840,2147089481,2146957842,2147656155,2147126720,2013,-1,8,56079
1355588231,5806,407.4700012207031000,17.8906002044677730,36.5307998657226560,232.7001953125000000,158.9689025878906200,17.8859691619873050,30.8951702117919920,50,99,52,56,54,12778,2146958601,2147513270,2147266148,2147460644,2147088256,2146954404,2147656585,2147124918,1282,-2,8,36672
1355588363,5805,396.6199951171875000,17.9454994201660160,36.5405998229980500,232.9873046875000000,157.0233001708984400,17.9447097778320300,30.8550891876220700,50,99,53,56,53,12778,2146956361,2147516434,2147266532,2147458880,2147080045,2146958793,2147654317,2147126016,694,-1,8,16505
1355588497,5803,385.5599975585937500,18.0065002441406250,36.5493011474609400,232.8945007324218800,155.1152038574218800,18.0023307800292970,30.8341503143310550,50,99,52,56,53,12779,2146955949,2147516050,2147263533,2147456612,2147084251,2146959899,2147655908,2147127862,3412,-1,8,47712
1355588629,5802,374.8099975585937500,18.0606002807617200,36.5560989379882800,232.4329071044922000,153.2975006103515600,18.0572299957275400,30.8323307037353500,51,101,52,56,54,12777,2146955227,2147517568,2147267757,2147459373,2147080484,2146950006,2147654262,2147121965,2290,-1,8,8066
1355588764,5805,363.6400146484375000,18.1088008880615230,36.5625000000000000,232.2572021484375000,151.5776977539062500,18.1091804504394530,30.8178405761718750,50,99,52,55,55,12777,2146957814,2147511817,2147266450,2147455661,2147080073,2146957046,2147655497,2147127899,1195,-1,8,4880
1355588896,5806,352.7399902343750000,18.1898994445800780,36.5704994201660160,231.5518035888672000,149.1020050048828000,18.1839694976806640,30.8189792633056640,50,101,52,56,54,12774,2146959149,2147515894,2147265289,2147457307,2147085851,2146957001,2147654701,2147127451,3302,-1,8,55670
1355589031,5805,341.5100097656250000,18.2413997650146500,36.5778007507324200,231.0899047851562500,147.0135040283203000,18.2470703125000000,30.8139591217041000,50,99,52,56,53,12775,2146956946,2147513225,2147266596,2147457325,2147081270,2146960100,2147657472,2147127835,2208,-2,8,26704
1355589163,5804,330.6300048828125000,18.3306007385253900,36.5858993530273440,230.0881042480468800,144.4331054687500000,18.3250503540039060,30.8285007476806640,50,99,51,56,56,12777,2146956882,2147514066,2147267712,2147454902,2147079862,2146954267,2147659437,2147128576,1363,-2,8,877
1355589295,5809,319.5799865722656000,18.3931999206542970,36.5903015136718750,228.8549957275390600,142.3854064941406200,18.3869400024414060,30.8621807098388670,50,100,52,57,55,12775,2146957046,2147516864,2147266075,2147453504,2147080713,2146961398,2147658523,2147127030,3550,-1,8,47227
1355589429,5806,308.0400085449219000,18.4293003082275400,36.5932998657226560,228.1040954589843800,141.1817016601562500,18.4233207702636720,30.8835792541503900,50,98,52,56,55,12773,2146955428,2147516370,2147265170,2147453842,2147081517,2146960987,2147654966,2147130084,2207,-2,8,29776
1355589550,5804,297.6000061035156000,18.4967994689941400,36.5946998596191400,226.9788055419922000,138.8347015380859400,18.4942703247070300,30.9079399108886720,50,98,52,56,54,12774,2146956699,2147514651,2147266413,2147454957,2147077430,2146959616,2147658898,2147126628,1254,-1,8,57854
1355589685,5806,285.8999938964844000,18.5722999572753900,36.5987014770507800,226.0543975830078000,136.0982055664062500,18.5770206451416000,30.9179306030273440,50,97,52,56,53,12777,2146955949,2147513490,2147264557,2147452937,2147081069,2146961462,2147656182,2147125915,296,-1,8,33562
1355589806,5809,275.1199951171875000,18.6392993927001950,36.5954017639160160,225.6199035644531200,134.2024993896484400,18.6343498229980470,30.9142494201660160,50,97,52,56,53,12777,2146955382,2147515968,2147264603,2147453476,2147088914,2146960246,2147662189,2147127707,2690,-1,8,10927
1355589927,5803,264.3999938964844000,18.7103004455566400,36.5952987670898440,225.1712951660156200,131.7200927734375000,18.7094402313232420,30.9037609100341800,50,97,51,57,54,12778,2146958774,2147513216,2147264082,2147455296,2147083282,2146963236,2147667053,2147128841,1459,-1,8,38483
1355590061,5808,253.3300018310547000,18.9417991638183600,36.6166000366210940,221.7144012451172000,124.3386993408203100,18.9328002929687500,30.9808006286621100,51,98,52,56,54,12777,2146957924,2147513709,2147263341,2147452854,2147086628,2146967789,2147664310,2147127990,946,-2,9,6002
1355590204,5806,242.8699951171875000,19.0097999572753900,36.6099014282226560,224.9116973876953000,121.8650970458984400,19.0076904296875000,30.7853908538818360,50,98,52,56,54,12779,2146954660,2147512822,2147264484,2147453613,2147083556,2146969179,2147675346,2147129801,258,-1,8,11161
1355590360,5809,231.1399993896484400,19.1079006195068360,36.5872001647949200,233.6334075927734400,118.6187973022461000,19.1059894561767580,30.3134803771972660,51,99,51,55,54,12777,2146956489,2147514240,2147267849,2147451803,2147087652,2146981851,2147697654,2147130569,2593,-1,8,25470
1355590492,5803,220.1100006103515600,19.2185001373291000,36.5866012573242200,238.3323059082031200,114.8578033447265600,19.2199096679687500,30.0410404205322270,50,96,53,56,53,12779,2146954998,2147512402,2147268123,2147452662,2147088000,2146991232,2147715794,2147132068,2472,-1,9,59728
1355590627,5805,209.3800048828125000,19.3036994934082030,36.5797996520996100,241.9158020019531200,112.2230987548828100,19.2997398376464840,29.8401794433593750,50,98,53,55,54,12777,2146959643,2147512521,2147266166,2147452955,2147086445,2146986368,2147705005,2147129600,1361,-2,9,22505
1355590759,5806,198.7299957275390600,19.3633995056152340,36.5803985595703100,242.9467926025390600,110.3081970214843800,19.3577709197998050,29.7681293487548830,50,97,53,55,52,12774,2146953060,2147515081,2147266852,2147449993,2147090825,2146991634,2147709284,2147133174,533,-1,8,18491
1355590814,5807,194.1699981689453000,19.3873004913330080,36.5774993896484400,243.3603973388672000,109.4080963134765600,19.3850593566894530,29.7373409271240230,51,98,52,56,53,12774,2146957284,2147514816,2147265673,2147448128,2147088548,2146997348,2147710537,2147132278,3529,-1,8,19374
1355590869,5805,189.5000000000000000,19.4120998382568360,36.5780982971191400,243.3300933837890600,108.5820999145507800,19.4101009368896500,29.7278804779052730,51,98,52,56,53,12772,2146954441,2147514212,2147265014,2147447616,2147091712,2146997860,2147717019,2147131017,2950,-1,9,47730
1355590944,5804,183.2599945068359400,19.4531993865966800,36.5816993713378900,243.1000061035156200,107.1716003417968800,19.4528598785400400,29.7203693389892580,52,98,53,55,54,12771,2146958080,2147517796,2147261632,2147450230,2147090953,2147005933,2147722642,2147131931,2420,-1,8,51520
1355590999,5806,178.8600006103515600,19.5135993957519530,36.5875015258789060,242.6580963134765600,105.2760009765625000,19.5103397369384770,29.7159900665283200,52,100,53,55,54,12769,2146956086,2147515501,2147269001,2147450998,2147091172,2147008237,2147727478,2147133376,2113,-2,8,50247
1355591054,5807,174.4400024414062500,19.5436992645263670,36.5898017883300800,242.4541931152343800,104.3186035156250000,19.5393695831298830,29.7128906250000000,52,97,52,56,52,12771,2146956260,2147516562,2147266870,2147448301,2147093220,2147014372,2147740571,2147135177,1527,-2,9,47884
1355591109,5803,169.9700012207031200,19.5802001953125000,36.5932998657226560,242.2032012939453000,103.0416030883789000,19.5781002044677730,29.7077808380126950,53,98,53,56,54,12769,2146957147,2147517348,2147266029,2147444361,2147095872,2147020224,2147758006,2147132873,1161,-1,8,45076
1355591164,5807,165.4900054931640600,19.6760997772216800,36.6030006408691400,241.6943969726562500,100.0481033325195300,19.6689205169677730,29.6924705505371100,54,102,52,55,54,12769,2146954459,2147518628,2147265216,2147449270,2147097609,2147034605,2147775762,2147137033,691,-2,8,47855
1355591219,5806,161.0800018310547000,19.7677001953125000,36.6104011535644500,241.3002014160156200,96.7891464233398400,19.7678203582763670,29.6681308746337900,55,99,52,56,54,12764,2146959780,2147515949,2147265664,2147450112,2147103259,2147053028,2147797668,2147137344,197,-1,8,22900
1355591297,5804,155.3800048828125000,19.8735008239746100,36.6170997619628900,241.5646972656250000,93.3733367919921900,19.8715095520019530,29.6119594573974600,58,101,53,55,54,12763,2146957385,2147515666,2147267538,2147446656,2147104539,2147085522,2147839552,2147139099,243,-1,9,38200
1355591352,5808,152.0000000000000000,19.9545001983642580,36.6212005615234400,241.7380065917968800,90.6591262817382800,19.9539394378662100,29.5690498352050780,60,101,53,56,54,12760,2146956900,2147514285,2147269494,2147446674,2147109705,2147096722,2147873938,2147142793,410,-1,9,46422
1355591418,5807,148.3699951171875000,20.0321998596191400,36.6263008117675800,242.0005950927734400,88.3569183349609400,20.0238704681396500,29.5273208618164060,61,104,53,56,53,12758,2146952438,2147518976,2147270811,2147445577,2147114486,2147125284,2147904292,2147145344,126,-1,9,34189
1355591495,5805,144.4499969482422000,20.1089992523193360,36.6295013427734400,243.0684051513672000,85.9136734008789000,20.0981197357177730,29.4470405578613280,66,102,52,56,53,12756,2146957650,2147516964,2147270957,2147446208,2147123081,2147158336,2147951341,2147149558,3418,-2,9,45503
1355591572,5804,140.8399963378906200,20.1832008361816400,36.6358985900878900,243.7608947753906200,83.4765090942382800,20.1721897125244140,29.3842601776123050,66,104,52,57,54,12752,2146958966,2147519460,2147272758,2147446217,2147133037,2147189485,2147991954,2147151862,3339,-1,9,42917
1355591662,5805,136.9299926757812500,20.3080005645751950,36.6459999084472660,243.5455017089843800,79.4396362304687500,20.2949409484863280,29.3422203063964840,67,108,53,56,55,12750,2146954148,2147519862,2147273572,2147445302,2147142034,2147222765,2148041965,2147154633,2980,-1,9,48381
1355591761,5805,132.8500061035156200,20.4211006164550780,36.6515998840332000,242.6972045898437500,75.3173904418945300,20.4203395843505860,29.3280601501464840,70,105,52,56,53,12745,2146958491,2147520877,2147276516,2147444809,2147157019,2147277019,2148122496,2147162596,2404,-1,9,28018
1355591860,5806,129.0099945068359400,20.5562000274658200,36.6587982177734400,242.5068054199218800,71.3802413940429700,20.5401802062988280,29.2861595153808600,72,109,54,56,53,12746,2146957357,2147522934,2147278957,2147441069,2147170724,2147326381,2148177517,2147166921,1680,-2,9,46073
1355591984,5804,125.3000030517578100,20.7329998016357420,36.6640014648437500,243.0061950683593800,65.6059570312500000,20.7160491943359380,29.1898002624511720,76,109,52,57,54,12738,2146961014,2147527716,2147283355,2147442596,2147199469,2147422701,2148306587,2147178806,1177,-2,9,29219
1355592259,5806,121.0699996948242200,20.9437999725341800,36.6819992065429700,242.4631958007812500,58.7402114868164060,20.9253292083740230,29.1269092559814450,74,113,53,57,53,12735,2146961718,2147534272,2147290669,2147441627,2147244370,2147567049,2148511734,2147192201,869,-1,9,23312
1355592369,5806,116.8799972534179700,21.0767993927001950,36.7001991271972660,235.0670928955078000,53.9890289306640600,21.0702800750732420,29.4069805145263670,66,109,52,57,54,12738,2146963913,2147535972,2147298139,2147443264,2147295798,2147718665,2148686363,2147207378,1115,-2,9,7587
1355592468,5807,112.6699981689453100,21.2185993194580080,36.7094001770019500,232.6183013916015600,49.6044006347656250,21.2041301727294920,29.4663391113281250,59,109,53,55,53,12740,2146966546,2147543588,2147310345,2147439707,2147384777,2147958400,2148984338,2147230930,1006,-2,9,19058
1355592568,5804,108.6100006103515600,21.5184001922607420,36.7181015014648440,230.8242950439453000,38.8334617614746100,21.5333099365234380,29.4138298034667970,62,109,53,57,53,12733,2146975030,2147557412,2147333851,2147439606,2147520246,2148337078,2149471168,2147269101,826,-2,8,31616
1355592656,5805,104.8899993896484400,21.7810993194580080,36.7093009948730500,230.3545074462890600,31.4996795654296880,21.7577590942382800,29.3426704406738280,78,113,52,56,53,12718,2146980973,2147572955,2147354806,2147444397,2147691474,2148805915,2150083209,2147315629,1648,-2,9,56878
1355592777,5803,101.4800033569336000,22.0391998291015620,36.6687011718750000,231.4281005859375000,22.8697700500488280,22.0222206115722660,29.1818103790283200,84,120,51,57,54,12704,2146987437,2147588864,2147371602,2147441014,2147841435,2149104694,2150430747,2147347136,1330,-2,9,36676
1355592890,5803,99.3399963378906200,22.2642002105712900,36.5946006774902340,234.7926025390625000,15.6174097061157230,22.2447700500488280,28.9320507049560550,82,117,53,57,52,12699,2146992082,2147604717,2147399497,2147442276,2148045476,2149573147,2151019090,2147391268,1146,-1,9,54063
1355592989,5805,97.4199981689453100,22.3418998718261720,36.5421981811523440,238.1539001464843800,12.8729200363159180,22.3290596008300780,28.7426395416259770,76,118,53,58,51,12697,2146999734,2147614793,2147409773,2147438720,2148182528,2149847625,2151305755,2147417819,1537,-2,9,4052
1355593110,5804,95.5000000000000000,22.3883991241455080,36.5032997131347660,240.0538024902343800,11.5232000350952150,22.3705196380615230,28.6395092010498050,72,121,53,56,52,12697,2147003556,2147613339,2147409737,2147437842,2148219309,2149817627,2151208667,2147409472,1076,-2,9,36665
1355593222,5806,92.8399963378906200,22.4018001556396500,36.4906005859375000,242.8493957519531200,10.6817398071289060,22.3963794708251950,28.5034503936767580,72,120,53,57,51,12689,2147001691,2147608786,2147398811,2147438857,2148224164,2149658048,2150860918,2147386587,822,-1,9,21155
1355593277,5808,90.6999969482421900,22.4274997711181640,36.4620018005371100,244.1943054199218800,9.8785314559936520,22.4210700988769530,28.4335308074951170,70,121,52,56,53,12691,2147011629,2147621732,2147412672,2147437531,2148397430,2149940608,2151161929,2147418989,771,-1,9,2886
1355593332,5807,88.5000000000000000,22.4293994903564450,36.4555015563964840,246.2355957031250000,9.7263870239257810,22.4257392883300780,28.3417701721191400,73,119,52,56,51,12688,2147011538,2147619684,2147400393,2147441060,2148420854,2149853869,2150970761,2147406628,785,-2,9,57451
1355593387,5805,86.4700012207031200,22.4270000457763670,36.4533996582031250,247.4864044189453000,9.7342548370361330,22.4255008697509770,28.2872600555419920,73,123,53,57,51,12681,2147011026,2147613833,2147394185,2147437906,2148449938,2149821869,2150839716,2147400301,617,-2,9,28702
1355593442,5806,84.6100006103515600,22.4270992279052730,36.4523010253906250,248.0160980224609400,9.7238302230834960,22.4258193969726560,28.2639999389648440,74,122,52,58,52,12682,2147016192,2147614381,2147389878,2147440338,2148494390,2149814317,2150780854,2147396635,429,-1,9,48786
1355593520,5806,81.5199966430664000,22.4228000640869140,36.4338989257812500,249.0164031982422000,9.9048881530761720,22.4202594757080080,28.2230091094970700,74,122,53,58,52,12677,2147020425,2147623753,2147404105,2147437577,2148745170,2150174756,2151100114,2147434340,444,-2,9,34881
1355593575,5806,78.6900024414062500,22.4179992675781250,36.4203987121582000,250.3820037841797000,10.0425701141357420,22.4160194396972660,28.1658496856689450,75,124,53,58,53,12668,2147032210,2147641161,2147415497,2147442441,2148990235,2150512256,2151439561,2147466797,375,-1,8,34603
1355593630,5809,76.0699996948242200,22.4146003723144530,36.4126014709472660,251.0489044189453000,10.1308898925781250,22.4133090972900400,28.1381607055664060,77,122,54,59,52,12663,2147045312,2147652672,2147430153,2147443108,2149265563,2150922925,2151828800,2147508544,146,-2,9,14317
1355593685,5805,73.4499969482421900,22.4148998260498050,36.4123001098632800,251.6992950439453000,10.1482000350952150,22.4127807617187500,28.1105003356933600,76,124,54,57,52,12657,2147052242,2147669686,2147450258,2147441344,2149608713,2151427840,2152313216,2147565147,3544,-2,9,29876
1355593740,5807,70.6100006103515600,22.4136009216308600,36.4132003784179700,251.8654937744140600,10.1711101531982420,22.4120693206787100,28.1037406921386720,77,124,52,56,51,12662,2147074331,2147693248,2147478820,2147443373,2150029915,2152041353,2152934628,2147631213,3278,-2,9,23666
1355593795,5802,67.8399963378906200,22.4109992980957030,36.4101982116699200,251.9951019287109400,10.2812595367431640,22.4086894989013670,28.0997009277343750,75,127,53,58,50,12659,2147092544,2147719460,2147511506,2147445101,2150534052,2152789888,2153679734,2147716763,3197,-2,9,22137
1355593852,5807,64.9700012207031200,22.4081993103027340,36.4094009399414060,252.3049011230468800,10.3130302429199220,22.4077091217041000,28.0867691040039060,77,126,53,57,53,12655,2147120576,2147751424,2147545490,2147447049,2151167579,2153697197,2154568850,2147824557,2933,-2,9,39842
1355593907,5809,61.8199996948242200,22.4081001281738280,36.4071006774902340,252.5283050537109400,10.3343696594238280,22.4070491790771500,28.0775604248046880,77,127,54,58,51,12644,2147154697,2147800731,2147596370,2147452041,2152105033,2155057728,2155918080,2147997440,2749,-2,9,35019
1355593962,5804,58.6800003051757800,22.4088993072509770,36.4065017700195300,252.7693023681640600,10.3225698471069340,22.4074192047119140,28.0671195983886720,77,125,53,57,51,12652,2147201792,2147862857,2147673691,2147461787,2153286784,2156791478,2157663936,2148223177,2539,-1,9,35317
1355594017,5807,55.5999984741210940,22.4097003936767580,36.4057998657226560,252.7785034179687500,10.3242397308349610,22.4073696136474600,28.0668907165527340,77,125,52,57,52,12655,2147248822,2147922624,2147739190,2147465069,2154492681,2158460662,2159271661,2148445549,2356,-2,9,7137
1355594158,5808,48.8499984741210940,22.4097995758056640,36.4052009582519500,252.9763031005859400,10.3020200729370120,22.4080505371093750,28.0581893920898440,77,127,53,57,52,12644,2147439222,2148162761,2148013668,2147501933,2159187181,2164972864,2165616585,2149410678,1922,-2,9,28587
1355594193,5809,46.9500007629394500,22.4085998535156250,36.4053993225097660,252.9813995361328000,10.3049697875976560,22.4079608917236330,28.0580291748046880,78,126,53,58,51,12643,2147505124,2148238966,2148100452,2147515958,2160759862,2167079780,2167631616,2149737846,1896,-1,9,200
1355594225,5809,45.1500015258789060,22.4074993133544920,36.4039001464843750,253.0399932861328000,10.2939500808715820,22.4083003997802730,28.0552406311035160,79,126,52,59,52,12639,2147689179,2148500699,2148414774,2147546989,2165391204,2174180278,2175095497,2150829321,1916,-2,9,7204
1355594257,5809,43.3800010681152340,22.4076004028320300,36.4033012390136700,253.1235961914062500,10.2792997360229500,22.4087505340576170,28.0516700744628900,79,126,53,59,50,12640,2147722624,2148530642,2148434934,2147557156,2166250614,2174958290,2175590866,2151014180,1926,-2,9,18281
1355594289,5807,41.6100006103515600,22.4074993133544920,36.4030990600585940,253.1831970214843800,10.2826404571533200,22.4086494445800780,28.0491600036621100,78,126,53,59,52,12637,2147769078,2148575396,2148475200,2147565568,2167285412,2175907648,2176296539,2151238838,1935,-2,8,32504
1355594332,5807,39.2700004577636700,22.4050998687744140,36.4026985168457000,253.3195037841797000,10.3200101852417000,22.4074993133544920,28.0437602996826170,77,125,54,57,52,12631,2147779556,2148549924,2148434980,2147574628,2167640539,2175589019,2175256822,2151305746,1789,-2,8,54319
1355594364,5808,37.6199989318847660,22.4064006805419920,36.4017982482910160,253.4331054687500000,10.3173599243164060,22.4075794219970700,28.0389804840087900,78,126,53,56,51,12629,2147837248,2148614244,2148489673,2147590043,2169159067,2177329846,2176730669,2151639707,1679,-2,8,62797
1355594407,5808,35.3699989318847660,22.4058990478515620,36.4031982421875000,253.5323944091797000,10.3355503082275390,22.4070205688476560,28.0349407196044920,78,128,53,57,52,12637,2147973558,2148764608,2148652205,2147623643,2172603565,2181557321,2180593243,2152531163,1703,-2,9,39412
1355594439,5805,33.6599998474121100,22.4043006896972660,36.4006996154785160,253.5437927246093800,10.3404703140258790,22.4068698883056640,28.0345001220703120,78,125,53,58,51,12623,2148306779,2149202422,2149172260,2147696841,2180624256,2193133412,2192513060,2154739547,1689,-1,8,45741
1355594482,5804,31.4699993133544920,22.4044990539550780,36.4002990722656250,253.6569061279297000,10.3119497299194340,22.4077491760253900,28.0294399261474600,76,127,53,57,50,12618,2148277814,2149128182,2149074980,2147712868,2179866998,2190673600,2189080274,2154431387,1465,-1,9,3884
1355594516,5805,29.6900005340576170,22.4039001464843750,36.4002990722656250,253.7655029296875000,10.3218803405761720,22.4074401855468750,28.0250301361084000,76,123,54,56,53,12628,2148323794,2149144265,2149093229,2147764224,2181318921,2191833325,2189782144,2155032649,1275,-2,9,62140
1355594559,5804,27.2999992370605470,22.4036998748779300,36.3996009826660160,253.7944946289062500,10.3354501724243160,22.4070205688476560,28.0239295959472660,74,123,53,58,53,12622,2148353225,2149135808,2149032923,2147778066,2181870976,2191278235,2188354432,2155126976,1270,-2,9,26175
1355594591,5806,25.5599994659423830,22.4027996063232420,36.4001007080078100,253.8381958007812500,10.3000497817993160,22.4081096649169920,28.0215206146240230,75,125,53,57,51,12629,2148700617,2149565266,2149582326,2147951981,2190370971,2202576320,2199417005,2157806692,1187,-3,7,56570
